{"data":{"norad_id":59551,"intl_designator":"2024-074T","name":"STARLINK-31699","alt_names":[],"object_type":"PAYLOAD","status":"ACTIVE","operator":null,"country":"US","launch_date":"2024-04-18","launch_site_code":"AFETR","launch_vehicle":null,"mission":null,"orbit_class":"UNKNOWN","rcs_meters":null,"size_class":null,"mass_kg":null,"dimensions":null,"purposes":["comms"],"wikipedia_slug":null,"has_3d_model":false,"image_url":null,"decayed_at":null,"tle_current":{"epoch":"2026-05-25T01:07:50.499264Z","epoch_age_seconds":64893,"freshness":"FRESH","line1":"1 59551U 24074T   26145.04711226 -.00001842  00000+0 -57430-4 0  9992","line2":"2 59551  43.0000 272.1703 0000687 272.1035  87.9738 15.27581167117696","mean_motion":15.27581167,"eccentricity":6.87e-5,"inclination_deg":43,"raan_deg":272.1703,"arg_perigee_deg":272.1035,"mean_anomaly_deg":87.9738,"bstar":-5.743e-5,"rev_number":11769,"period_min":94.266676698299,"perigee_km":482.57423837932,"apogee_km":483.51696486878,"semimajor_km":6861.1826016241,"source":"CELESTRAK","updated_at":"2026-05-25T13:38:18.982716Z"}}}